Location: Dumbr?vi?a
(45.8833°N, 22.7000°E)
Time: 12:27:06
(UTC+00:00)

Cosmos 2278 Rocket - Pass Details

Date: 03 March 2021
Orbit: 841 x 845 km, 71.0° (Epoch: 11 April)

Event Time Altitude Azimuth Distance (km) Brightness Sun altitude
Rises 16:57:43 0° 342° (NNW) 3,415 5.6 -7.6°
Reaches altitude 10° 17:02:04 10° 14° (NNE) 2,476 4.5 -8.3°
Maximum altitude 17:04:07 12° 35° (NE) 2,341 4.2 -8.7°
Drops below altitude 10° 17:06:10 10° 56° (ENE) 2,471 4.1 -9.1°
Enters shadow 17:07:04 - 65° (ENE) 2,605 4.2 -9.2°
